Temperature
18 18 18 18 18 18 18 17 17 17 17 17 17 17 17 17 17 17 17 17 17 17 17 17 17 17 17 17 16 16 16 16 16 16 16 16 16 16 15 15 15 15 15
18 18 18 18 18 18 18 17 17 17 17 17 17 17 17 17 17 17 17 17 17 17 17 17 17 17 17 16 16 16 16 16 16 16 16 16 16 15 15 15 15 15 15
18 18 18 18 18 18 18 17 17 17 17 17 17 17 17 17 17 17 17 17 17 17 17 17 17 17 17 17 16 16 16 16 16 16 16 16 16 16 15 15 15 15 15
18 18 18 18 18 18 17 17 17 17 17 17 17 17 17 17 17 17 17 17 17 17 17 17 17 17 16 16 16 16 16 16 16 16 16 16 16 16 15 15 15 15 15
18 18 18 18 17 17 17 17 17 17 17 17 17 17 17 17 17 17 17 17 17 17 17 17 16 16 16 16 16 16 16 16 16 16 16 16 16 16 15 15 15 15 15
18 18 18 17 17 17 17 17 17 17 17 17 17 17 17 17 17 17 17 17 17 17 17 17 16 16 16 16 16 16 16 16 16 16 16 16 15 15 15 15 15 15 15
18 18 18 17 17 17 17 17 17 17 17 17 17 17 17 17 17 17 17 17 17 17 17 17 16 16 16 16 16 16 16 16 16 16 16 16 15 15 15 15 15 15 15
18 18 18 17 17 17 17 17 17 17 17 17 17 17 17 17 17 17 17 17 17 17 17 17 17 17 16 16 16 16 16 16 16 16 16 16 15 15 15 15 15 15 15
18 18 18 17 17 17 17 17 17 17 17 17 17 17 17 17 17 17 18 18 17 17 17 17 17 17 17 16 16 16 16 16 16 16 16 16 15 15 15 15 15 15 15
18 18 18 17 17 17 17 17 17 17 17 17 17 17 17 17 17 17 17 17 17 17 17 17 17 17 17 17 17 16 16 16 16 16 16 16 15 15 15 15 15 15 15
18 18 18 17 17 17 17 17 17 17 17 17 17 17 17 17 17 17 17 17 18 18 17 17 17 17 17 17 17 17 16 16 16 16 16 16 16 15 15 15 15 15 15
18 18 18 17 17 17 17 17 17 17 17 17 17 17 17 17 17 17 17 17 17 18 18 17 17 17 17 17 17 17 17 17 16 16 16 16 16 15 15 15 15 15 15
18 18 18 18 18 18 17 17 17 17 17 17 17 17 17 17 17 17 17 17 17 17 17 17 17 17 17 17 17 17 17 17 16 16 16 16 16 16 15 15 15 15 15
18 18 18 18 17 17 17 17 17 17 17 17 17 17 17 17 17 17 17 17 16 17 17 17 17 17 17 17 17 17 17 17 16 16 16 16 16 16 15 15 15 15 15
18 18 18 17 17 17 17 17 17 17 17 17 17 17 17 17 17 16 16 16 16 16 16 17 17 17 17 17 17 17 17 17 17 16 16 16 16 16 15 15 15 15 15
17 17 17 17 17 17 17 17 17 17 17 17 16 16 16 17 16 16 16 16 16 16 16 16 17 17 16 17 17 17 17 16 16 16 16 16 16 15 15 15 15 15 15
17 17 17 17 17 17 17 17 17 16 16 16 16 16 16 16 16 16 16 16 16 16 16 16 16 16 16 16 16 16 16 16 16 16 16 16 16 15 15 15 15 15 15
17 17 17 17 17 17 17 17 16 16 16 16 16 16 16 16 16 16 16 16 16 16 15 16 16 16 16 16 16 16 16 16 16 16 16 15 15 15 15 15 15 15 15
17 17 17 17 17 17 16 16 16 16 16 16 16 16 16 16 16 16 15 15 15 15 15 15 15 15 15 15 15 15 15 15 15 15 15 15 15 15 15 14 14 14 14
17 17 17 17 16 16 16 16 16 16 16 16 15 15 15 15 15 15 15 15 15 15 15 15 15 15 15 15 15 15 15 15 15 14 14 14 14 14 14 14 14 14 13
17 17 16 16 16 16 16 16 16 16 15 15 15 15 15 15 15 15 15 15 15 15 15 14 14 14 14 14 14 14 14 14 14 13 13 13 13 13 13 13 13 13 13
16 16 16 16 16 16 16 15 15 15 15 15 15 15 15 15 15 15 15 14 14 14 14 14 14 14 14 14 14 13 13 13 13 13 13 12 12 12 12 12 12 12 12
16 16 16 16 15 15 15 15 15 15 15 15 15 14 14 14 14 14 14 14 14 14 14 13 13 13 13 13 13 13 13 12 12 12 12 12 11 11 11 11 11 11 11
16 16 15 15 15 15 15 15 15 15 14 14 14 14 14 14 14 14 14 13 13 13 13 13 12 12 12 12 12 12 12 12 11 11 11 11 11 10 10 10 10 10 10
15 15 15 15 15 14 14 14 14 14 14 14 13 13 13 13 13 13 13 13 13 12 12 12 12 12 11 11 11 11 11 11 10 10 10 10 10 10 10 9 9 9 9
15 14 14 14 14 14 14 14 14 14 13 13 13 13 12 12 12 12 12 12 12 11 11 11 11 11 11 10 10 10 10 10 10 9 9 9 9 9 8 8 9 9 9
Wind_Speed
4 4 3 3 3 4 4 3 3 3 3 4 5 6 6 6 7 7 7 9 10 9 9 8 8 8 8 7 7 7 7 7 7 7 7 7 7 7 7 6 6 5 5
5 4 3 3 2 3 3 3 2 2 2 3 3 4 5 6 7 7 7 8 10 10 9 9 9 9 8 8 8 8 8 8 8 7 8 7 8 8 8 7 7 6 6
7 6 3 3 3 3 3 2 3 3 2 2 2 3 4 5 6 7 7 7 8 10 11 11 10 10 9 9 9 9 9 9 9 9 8 8 8 8 8 8 8 8 8
9 7 4 3 4 4 3 2 2 2 1 1 1 2 2 3 5 6 7 7 7 8 9 11 11 11 11 11 11 11 11 11 11 10 10 10 10 10 10 9 9 9 9
11 8 6 5 5 4 3 2 2 2 2 2 2 1 2 3 4 6 7 8 9 9 9 10 11 12 12 12 12 12 12 12 12 12 12 12 11 11 11 11 11 11 11
11 10 7 6 6 4 3 2 2 1 1 2 1 1 1 2 3 5 7 8 9 10 11 10 10 11 13 13 13 14 13 13 13 13 13 13 12 12 12 12 12 12 13
12 10 6 6 6 5 5 4 2 2 1 1 1 1 1 1 3 4 6 6 8 10 11 11 11 11 11 13 15 15 15 14 14 14 14 14 14 14 14 14 14 14 14
12 11 8 6 6 5 5 5 4 2 2 3 3 1 2 3 2 3 4 6 8 9 10 12 12 13 13 12 13 16 16 16 15 15 15 16 16 16 15 15 15 15 14
12 11 10 8 7 6 6 7 6 5 3 2 2 3 3 3 2 2 3 5 5 6 7 10 12 13 14 13 13 15 17 18 17 17 17 17 17 17 17 16 16 15 15
10 11 11 10 8 6 6 7 6 5 5 4 2 2 2 3 2 2 2 3 4 6 7 7 9 12 13 14 15 16 18 18 18 17 17 17 17 18 18 17 17 16 16
9 10 11 9 8 7 7 7 6 6 5 5 4 3 2 2 2 3 3 3 3 4 5 7 8 10 12 13 14 17 19 19 19 18 18 18 18 17 17 17 17 16 16
6 8 9 9 8 7 7 7 7 7 6 5 5 4 4 3 4 4 5 4 4 4 4 5 6 8 10 11 14 16 17 18 19 19 19 18 18 18 17 17 17 17 16
5 8 8 7 7 8 8 7 6 7 7 6 7 6 5 5 4 4 4 4 4 3 3 3 5 8 9 10 12 14 15 17 18 18 18 18 18 18 18 18 18 17 17
7 7 8 8 8 9 8 7 6 7 6 7 8 7 6 6 5 5 4 4 3 3 3 4 3 5 8 9 11 13 12 15 17 18 18 17 17 17 17 18 17 17 16
6 7 8 8 8 8 8 7 6 7 6 7 7 7 7 6 5 6 5 5 5 5 5 4 3 3 4 7 9 9 10 12 14 15 16 15 15 15 16 16 16 16 16
6 6 7 7 7 7 7 6 6 6 6 6 6 6 6 5 5 5 5 5 6 6 6 3 4 3 3 5 5 6 7 9 10 11 12 12 13 14 15 15 15 16 16
6 7 7 7 7 6 6 6 7 6 7 6 6 6 7 6 5 5 4 5 5 5 7 5 2 2 2 3 3 3 4 4 4 5 7 9 10 11 12 13 14 14 15
5 6 6 6 6 6 6 7 7 6 6 7 6 6 6 5 5 4 4 5 5 5 6 6 3 2 3 2 2 2 2 2 2 3 3 3 5 6 8 9 10 11 12
4 4 5 5 5 5 5 6 5 5 5 6 6 6 6 5 5 4 4 5 5 5 5 5 4 2 1 1 1 1 1 2 2 3 2 2 3 3 3 3 4 5 7
4 4 4 4 4 4 4 4 4 4 4 3 3 4 4 4 5 5 4 5 4 4 4 4 3 2 1 1 0 1 1 1 2 4 4 5 5 5 6 5 4 3 2
3 3 3 2 2 2 3 3 3 3 2 2 1 1 1 1 2 3 3 3 4 4 3 3 2 1 1 0 1 1 1 1 2 2 2 3 4 5 6 6 6 6 5
3 3 3 3 2 1 2 3 3 2 2 1 0 1 1 1 1 1 2 1 2 3 3 3 2 1 1 1 1 0 0 1 1 2 2 2 3 3 4 5 7 8 7
4 4 4 4 4 4 6 6 6 4 3 2 2 2 1 2 2 2 4 5 5 4 3 3 2 1 1 1 1 1 1 1 0 2 1 2 3 3 4 5 7 8 8
4 4 4 5 5 6 8 8 8 6 6 5 4 3 3 3 3 4 5 6 6 5 4 3 3 2 2 1 1 1 1 2 2 3 3 1 2 2 3 4 7 8 8
6 5 5 6 6 6 8 8 8 6 7 7 7 7 6 5 6 6 6 6 6 5 8 9 8 8 9 9 6 3 3 3 2 3 4 2 2 2 2 2 6 8 9
7 7 7 7 7 6 8 8 7 6 7 6 7 8 11 9 9 7 6 6 6 4 5 7 8 9 9 11 10 6 3 3 2 2 3 2 2 2 2 2 4 7 8
Wind_Direction
150 145 135 131 125 120 118 111 103 100 117 135 151 161 161 169 175 179 181 184 183 182 179 179 178 175 175 174 172 172 170 170 171 173 173 173 171 169 170 169 170 167 166
169 162 154 153 154 148 136 125 113 108 123 144 158 168 172 176 183 186 189 194 196 194 194 196 195 192 193 193 193 193 191 190 190 190 191 191 189 189 190 191 191 190 188
186 178 174 182 190 173 150 122 103 94 109 134 159 175 177 181 188 193 195 202 208 210 210 209 207 207 208 209 209 209 206 205 203 204 204 204 202 202 203 204 205 203 204
197 185 185 199 193 170 155 133 120 105 111 140 173 191 187 191 200 203 206 210 214 219 224 222 218 218 220 221 222 222 220 217 215 215 214 214 215 216 215 215 215 215 216
203 192 194 202 185 166 163 172 148 147 159 171 198 212 206 212 215 215 217 218 219 223 229 233 232 230 231 231 231 230 229 226 224 225 225 224 224 225 224 225 224 224 225
203 196 195 195 180 168 174 170 159 144 159 170 186 208 244 234 226 226 227 226 226 227 230 233 237 240 240 241 239 237 236 234 230 230 231 231 231 229 229 230 231 232 232
201 196 196 188 184 187 190 179 163 164 172 141 105 2 322 257 238 234 233 232 233 231 231 233 235 239 243 245 245 243 242 241 238 236 235 235 235 235 233 234 236 237 238
201 201 194 192 189 184 184 184 171 163 175 163 151 124 326 321 280 240 230 230 235 233 234 235 235 237 240 243 244 244 244 244 243 240 238 237 237 238 238 237 238 239 240
204 201 198 197 193 190 196 196 183 178 186 190 178 160 174 235 284 289 250 238 233 230 237 241 240 239 240 240 243 245 244 245 246 245 242 239 237 238 240 239 240 240 241
206 204 199 199 195 195 199 201 194 189 178 196 200 205 195 172 190 287 295 260 246 239 239 241 242 242 240 239 240 243 244 246 247 247 246 243 240 237 238 239 240 241 242
207 207 202 199 198 201 206 203 192 194 194 196 195 188 192 197 202 207 263 284 276 253 245 243 244 246 244 241 241 244 245 245 246 247 247 245 242 239 238 239 241 243 244
206 209 206 201 203 204 207 208 203 200 204 204 205 197 187 189 201 202 230 253 263 269 257 247 243 245 247 245 244 244 243 243 245 246 246 246 243 240 239 240 241 244 245
208 210 206 202 205 208 206 203 204 207 204 207 212 216 212 217 198 191 209 237 253 271 275 257 243 245 247 246 248 247 245 244 245 245 245 246 246 244 242 241 240 242 245
213 208 206 206 208 208 210 204 209 216 211 214 221 219 220 223 210 203 201 203 244 268 261 261 261 245 249 251 251 249 248 246 245 244 244 244 245 246 246 244 241 241 242
212 208 208 209 210 209 209 203 214 218 216 222 226 226 227 227 217 216 212 205 212 248 263 254 255 258 257 257 259 251 247 250 248 246 245 245 247 247 247 246 245 244 244
208 206 209 210 208 206 205 204 212 214 216 225 224 227 231 233 227 220 216 215 216 223 248 250 244 263 280 280 279 263 258 257 254 250 247 247 248 249 248 246 246 248 247
202 207 208 207 205 206 204 206 216 214 220 228 225 223 230 228 229 227 219 216 220 217 241 261 251 265 264 274 296 285 280 272 271 264 255 252 251 250 250 250 250 251 252
200 203 202 205 208 208 208 211 219 220 221 226 225 221 229 229 228 228 224 224 226 220 228 252 260 254 251 268 285 296 317 294 282 300 278 270 269 265 262 259 258 256 254
192 191 192 199 205 207 208 212 213 217 222 225 224 224 229 223 230 229 228 231 235 232 223 233 253 249 259 305 325 324 342 351 353 357 346 344 348 341 329 309 284 266 259
176 176 184 193 198 198 203 206 203 205 214 227 229 228 230 225 233 228 229 234 232 227 216 222 241 260 272 296 36 334 344 7 17 20 25 31 36 29 19 14 12 359 320
152 152 156 160 164 174 191 187 187 193 202 221 229 223 221 198 218 221 228 228 220 219 211 205 221 227 278 352 314 296 310 1 30 22 25 30 38 39 30 23 24 27 24
127 120 121 125 120 125 104 131 147 142 144 152 129 53 39 50 73 91 94 95 172 201 199 199 210 214 265 280 334 34 36 33 344 357 7 13 43 43 30 31 31 34 32
120 109 101 97 86 75 80 91 106 111 100 88 79 67 44 31 49 79 75 75 67 74 124 163 149 184 234 261 166 103 90 94 69 349 3 21 25 29 26 31 38 38 34
111 102 99 97 89 74 76 78 85 85 76 62 52 52 60 44 54 85 92 82 71 63 79 96 105 93 81 76 129 152 139 110 84 38 30 36 11 3 13 25 30 30 25
96 91 88 88 84 68 67 77 85 86 76 61 52 50 58 58 54 80 96 94 80 64 66 77 78 70 64 62 69 84 80 90 62 32 18 30 6 351 357 1 21 24 20
96 92 81 73 74 67 60 70 87 93 86 74 61 54 54 58 54 66 86 91 86 69 72 72 64 59 58 56 58 66 81 91 82 39 8 16 12 3 352 349 1 11 15
Height
1573 1575 1576 1578 1579 1581 1582 1584 1585 1586 1587 1589 1589 1590 1591 1591 1592 1592 1593 1593 1594 1595 1595 1596 1597 1597 1598 1599 1600 1600 1601 1602 1602 1603 1604 1604 1605 1606 1606 1607 1607 1608 1608
1575 1576 1577 1579 1581 1582 1583 1585 1586 1587 1588 1589 1590 1591 1592 1592 1592 1593 1593 1594 1594 1595 1596 1596 1597 1598 1598 1599 1599 1600 1601 1601 1602 1603 1603 1604 1605 1605 1606 1606 1607 1608 1608
1575 1577 1578 1580 1581 1583 1584 1585 1587 1588 1589 1589 1590 1591 1592 1592 1593 1593 1594 1594 1595 1595 1596 1596 1597 1597 1598 1598 1599 1600 1600 1601 1602 1602 1603 1603 1604 1604 1605 1606 1606 1607 1607
1575 1577 1579 1580 1582 1583 1584 1586 1587 1588 1589 1589 1590 1591 1592 1592 1593 1593 1594 1594 1594 1595 1595 1596 1596 1597 1597 1598 1598 1599 1599 1600 1600 1601 1602 1602 1603 1603 1604 1605 1605 1606 1606
1575 1577 1578 1580 1582 1583 1584 1585 1586 1588 1589 1589 1590 1591 1591 1592 1592 1593 1593 1594 1594 1594 1595 1595 1595 1596 1596 1597 1597 1597 1598 1598 1599 1600 1600 1601 1601 1602 1602 1603 1604 1604 1605
1574 1576 1578 1579 1581 1582 1583 1585 1586 1587 1588 1589 1589 1590 1590 1591 1591 1592 1592 1593 1593 1593 1594 1594 1594 1595 1595 1595 1596 1596 1596 1596 1597 1597 1598 1599 1599 1600 1600 1601 1602 1602 1603
1573 1575 1576 1578 1579 1581 1582 1584 1585 1586 1587 1588 1588 1589 1589 1589 1589 1590 1590 1591 1592 1592 1592 1593 1593 1593 1593 1594 1594 1594 1594 1594 1595 1595 1596 1596 1597 1597 1598 1598 1599 1600 1600
1571 1573 1575 1576 1578 1579 1580 1582 1583 1584 1585 1586 1587 1587 1587 1588 1587 1588 1588 1589 1589 1590 1591 1591 1591 1591 1592 1592 1592 1592 1592 1592 1592 1593 1593 1593 1594 1594 1595 1596 1596 1597 1597
1569 1570 1572 1574 1575 1577 1578 1579 1581 1582 1583 1584 1585 1586 1586 1585 1586 1586 1586 1586 1587 1588 1588 1589 1589 1589 1589 1589 1590 1590 1590 1590 1590 1590 1590 1590 1591 1591 1592 1593 1593 1594 1594
1566 1567 1569 1570 1572 1574 1576 1577 1578 1579 1581 1581 1582 1583 1584 1584 1585 1584 1584 1584 1585 1585 1585 1586 1586 1586 1587 1587 1587 1587 1587 1587 1587 1587 1587 1587 1588 1588 1589 1589 1590 1590 1591
1562 1564 1566 1568 1569 1571 1572 1574 1575 1576 1577 1578 1579 1580 1581 1582 1582 1582 1581 1582 1582 1582 1583 1583 1583 1583 1583 1583 1583 1584 1584 1584 1584 1584 1584 1584 1585 1585 1586 1586 1586 1587 1587
1559 1560 1562 1564 1566 1568 1569 1571 1572 1573 1574 1575 1576 1577 1578 1578 1579 1579 1579 1578 1579 1579 1580 1580 1580 1580 1580 1580 1580 1580 1580 1580 1581 1581 1581 1581 1581 1582 1582 1582 1583 1583 1583
1554 1556 1558 1560 1562 1564 1566 1567 1568 1569 1570 1571 1572 1573 1574 1575 1575 1576 1576 1576 1575 1575 1575 1576 1576 1576 1576 1576 1576 1576 1576 1576 1576 1577 1577 1577 1578 1578 1578 1578 1579 1579 1579
1550 1552 1554 1556 1558 1560 1561 1563 1564 1565 1566 1567 1568 1569 1569 1570 1571 1571 1572 1573 1572 1571 1571 1571 1572 1572 1572 1572 1572 1572 1572 1572 1572 1573 1573 1573 1573 1574 1574 1574 1574 1575 1575
1546 1548 1549 1552 1553 1555 1557 1558 1559 1561 1562 1563 1563 1564 1565 1565 1566 1567 1568 1568 1569 1568 1566 1567 1568 1568 1568 1568 1568 1568 1568 1568 1568 1568 1568 1569 1569 1569 1569 1569 1570 1570 1570
1541 1543 1545 1547 1549 1550 1552 1553 1555 1556 1557 1557 1558 1559 1560 1560 1561 1562 1563 1563 1564 1564 1563 1562 1563 1564 1564 1564 1564 1564 1564 1564 1564 1564 1564 1564 1564 1564 1565 1565 1565 1565 1565
1537 1539 1540 1542 1544 1546 1547 1549 1550 1551 1552 1552 1553 1553 1554 1555 1556 1557 1557 1558 1559 1559 1558 1558 1559 1559 1559 1559 1559 1559 1559 1559 1559 1559 1559 1559 1559 1560 1560 1560 1560 1560 1560
1533 1535 1537 1538 1539 1541 1543 1544 1545 1546 1547 1547 1548 1548 1549 1550 1551 1552 1553 1553 1554 1554 1554 1554 1554 1554 1554 1555 1554 1554 1554 1554 1554 1554 1554 1555 1555 1555 1554 1554 1554 1554 1554
1530 1531 1533 1534 1535 1537 1538 1540 1541 1542 1542 1543 1543 1544 1544 1545 1546 1546 1547 1548 1549 1549 1549 1549 1549 1550 1550 1550 1550 1550 1550 1550 1549 1550 1550 1550 1549 1549 1549 1549 1548 1548 1548
1527 1528 1530 1531 1532 1533 1534 1536 1537 1538 1539 1539 1539 1540 1540 1541 1541 1541 1542 1543 1544 1544 1545 1545 1545 1545 1545 1545 1546 1545 1545 1545 1545 1546 1545 1545 1544 1544 1544 1543 1543 1543 1542
1525 1526 1527 1528 1529 1530 1531 1533 1534 1535 1535 1536 1536 1537 1537 1537 1537 1538 1538 1538 1539 1539 1540 1540 1540 1541 1541 1541 1541 1541 1541 1541 1541 1542 1541 1541 1540 1539 1539 1539 1538 1538 1537
1523 1524 1525 1526 1527 1528 1529 1531 1532 1532 1533 1533 1534 1534 1534 1534 1534 1534 1535 1535 1535 1535 1535 1536 1536 1536 1537 1537 1538 1538 1538 1538 1538 1539 1538 1537 1537 1536 1536 1535 1535 1534 1533
1522 1523 1524 1525 1525 1527 1528 1529 1530 1530 1531 1531 1532 1532 1532 1532 1532 1532 1532 1531 1531 1532 1532 1533 1533 1533 1534 1534 1535 1534 1534 1534 1535 1535 1535 1534 1534 1533 1533 1532 1531 1531 1530
1521 1522 1523 1524 1525 1526 1527 1528 1528 1529 1529 1530 1530 1530 1530 1530 1530 1530 1530 1529 1529 1529 1529 1530 1530 1531 1531 1532 1532 1532 1532 1533 1533 1532 1532 1532 1531 1531 1530 1530 1529 1528 1527
1521 1522 1523 1523 1524 1526 1527 1527 1528 1528 1528 1529 1529 1530 1530 1529 1529 1529 1528 1528 1527 1527 1528 1528 1529 1529 1529 1530 1530 1530 1530 1530 1530 1530 1530 1530 1529 1529 1528 1528 1527 1526 1524
1521 1522 1523 1524 1525 1526 1527 1527 1528 1528 1528 1528 1529 1529 1529 1529 1528 1528 1528 1527 1527 1527 1527 1527 1527 1527 1528 1528 1528 1528 1528 1528 1527 1528 1528 1528 1527 1527 1527 1526 1525 1524 1522